Dewpoint
67 67 67 67 67 68 67 67 67 66 66 65 65 66 65 64 64 64 65 65 65 64 65 66 67 67 67 67 67 66 64 61 58 58 59 59 58 59 59 59 60 59 60
66 64 64 64 66 67 66 66 66 65 65 65 65 65 64 65 64 62 63 63 62 62 63 64 65 68 67 66 66 64 63 61 59 56 57 57 57 57 58 58 58 59 57
65 64 62 62 65 66 65 65 66 65 64 64 63 63 63 64 64 63 63 62 60 60 61 61 62 64 65 64 64 63 60 59 58 57 55 57 56 57 56 57 57 57 57
65 64 64 67 66 64 65 64 65 64 63 64 63 62 62 58 59 62 63 62 60 59 59 59 59 60 63 63 62 61 59 57 56 55 55 55 56 57 57 55 55 54 53
65 65 67 67 67 65 65 65 65 64 64 63 63 60 57 55 57 60 61 62 61 60 58 57 59 61 62 64 62 59 58 57 56 55 55 55 55 55 55 55 55 53 54
66 67 68 68 65 65 65 64 64 64 63 63 62 57 55 55 58 60 61 60 61 61 58 58 58 59 60 60 60 62 59 57 55 55 54 53 54 55 55 56 57 55 55
67 68 67 67 65 66 66 66 65 64 64 63 62 58 56 55 57 57 60 60 59 58 57 58 54 54 57 55 54 56 58 60 60 57 55 55 54 56 56 57 56 56 56
67 68 67 67 66 66 65 65 65 66 65 64 64 60 57 54 57 54 56 60 60 58 57 57 54 51 53 48 44 41 42 51 57 58 58 56 54 55 57 56 56 54 55
67 68 67 68 66 66 65 65 65 65 65 64 64 63 57 53 54 52 53 60 58 55 51 54 54 48 52 53 44 40 38 37 48 51 51 51 51 52 52 52 54 54 53
68 68 69 69 66 66 66 66 66 65 64 63 63 63 59 57 52 50 51 57 57 55 47 44 50 47 49 52 47 43 42 45 44 45 44 46 48 52 54 48 48 46 49
68 69 69 69 67 67 67 66 66 64 63 62 63 61 61 58 51 51 50 55 58 55 47 43 41 47 45 48 53 54 49 51 53 50 50 51 52 50 47 47 47 47 48
67 69 68 68 68 68 67 66 65 64 63 62 63 62 62 59 53 51 51 52 54 54 46 43 39 43 42 43 44 43 44 44 44 47 51 50 52 49 48 45 46 47 48
68 67 67 67 67 67 66 66 64 64 64 62 62 61 62 60 54 49 48 49 51 52 44 44 43 41 41 42 43 44 44 42 48 44 41 41 40 39 44 48 48 49 48
64 65 65 65 63 63 64 64 66 65 64 63 62 61 60 60 56 53 49 48 49 46 47 41 40 41 45 47 42 42 42 42 42 41 41 41 43 46 44 40 39 47 48
64 64 65 63 62 58 54 53 55 59 58 64 64 62 60 59 58 52 51 49 48 42 41 41 43 44 43 42 42 43 42 40 43 43 43 43 42 42 40 42 39 41 39
63 62 63 64 59 56 55 54 50 47 45 49 50 57 55 54 50 47 45 45 45 43 42 43 42 44 45 45 45 46 44 46 45 44 42 40 41 38 36 38 43 38 39
61 62 62 60 59 56 55 55 55 52 46 45 45 47 49 50 48 46 47 43 42 42 40 43 45 45 46 49 48 45 40 44 42 46 44 40 41 43 36 38 43 40 41
58 56 60 61 60 57 56 54 54 54 54 53 44 46 45 44 42 42 41 42 40 40 42 42 44 49 50 46 45 46 44 42 42 46 42 43 43 38 39 41 37 41 38
58 58 59 60 59 57 57 56 55 55 54 52 46 44 41 41 41 41 42 45 44 43 41 40 42 44 49 45 45 47 46 46 46 44 43 45 42 43 41 42 41 42 40
58 57 57 58 58 57 57 56 55 55 55 52 49 48 43 44 42 41 40 42 46 48 44 41 40 43 48 48 49 46 45 41 42 42 42 44 45 42 41 42 40 40 40
57 57 57 57 58 58 57 56 55 55 56 54 52 50 43 44 44 44 43 42 43 45 46 48 44 48 48 50 49 47 44 45 45 45 44 46 47 43 43 42 41 41 41
58 57 56 57 56 57 57 58 57 56 55 55 53 51 41 44 46 47 46 46 46 47 48 49 48 47 47 48 48 47 46 46 47 47 47 47 46 44 42 41 40 39 38
58 57 57 57 56 55 55 56 58 59 58 58 57 53 45 45 49 49 49 49 49 49 49 49 45 44 43 48 48 48 44 45 47 47 46 45 44 43 42 40 40 38 37
57 57 56 57 58 57 57 56 57 54 58 57 50 49 48 48 47 44 43 44 46 46 46 46 44 44 45 48 50 47 47 47 46 45 46 44 43 40 39 38 36 34 32
57 56 55 55 53 51 50 46 49 49 49 47 45 47 48 46 42 46 50 49 47 44 45 46 46 45 44 45 40 36 35 31 34 36 38 36 35 35 35 35 34 30 28
58 57 56 55 50 49 48 50 50 51 50 51 51 52 51 50 50 51 53 53 53 53 51 48 45 45 45 38 32 28 29 27 24 27 24 24 23 24 26 27 29 29 27
Lifted_Index
-5 -5 -5 -3 -2 -2 -2 -2 -2 -2 -1 -1 -0 -0 1 1 2 2 2 2 2 1 1 0 -0 -0 -0 -0 -0 -0 0 1 1 2 2 3 3 3 3 2 3 3 3
-5 -5 -4 -2 -2 -2 -2 -2 -2 -2 -1 -1 -0 0 1 1 2 3 3 3 3 2 1 0 0 -0 0 0 0 0 1 1 2 2 2 3 3 3 3 3 3 4 4
-5 -4 -2 -2 -2 -3 -2 -2 -2 -1 -1 -0 0 1 1 1 2 3 3 4 4 4 2 1 1 1 1 1 1 1 1 2 2 2 3 3 3 3 3 3 4 4 5
-4 -3 -3 -3 -3 -2 -2 -1 -1 -1 -0 0 1 1 2 2 2 2 3 4 5 5 4 3 2 1 1 2 2 2 2 2 2 2 3 3 3 3 3 4 4 5 5
-4 -4 -4 -4 -3 -2 -2 -1 -1 -1 -0 -0 0 1 2 2 2 2 3 3 4 5 5 5 4 3 2 2 3 3 3 2 3 3 3 3 3 3 4 4 5 5 6
-4 -5 -5 -4 -3 -2 -2 -1 -1 -1 -1 -1 -0 1 2 2 3 3 3 3 4 4 5 5 5 5 4 3 3 3 3 3 3 3 3 4 4 4 4 5 5 6 6
-5 -5 -5 -4 -3 -3 -2 -2 -1 -1 -1 -1 -1 0 2 3 3 3 3 3 4 4 5 5 5 5 5 4 4 3 3 3 3 4 4 4 5 5 5 5 6 6 6
-5 -5 -5 -4 -3 -3 -2 -2 -1 -1 -1 -1 -1 -0 1 3 3 3 3 3 4 4 5 5 5 6 6 6 5 4 5 5 5 5 5 5 5 5 6 6 6 5 5
-6 -6 -5 -5 -4 -3 -3 -2 -2 -2 -1 -1 -1 -0 0 2 3 2 2 2 3 4 5 5 6 6 7 7 6 6 7 8 9 9 8 7 7 7 7 7 6 6 6
-6 -6 -6 -5 -5 -4 -3 -3 -3 -3 -2 -1 -1 -1 -0 1 2 2 2 2 2 3 4 5 6 6 7 7 7 7 8 9 10 11 10 10 10 10 10 9 8 7 7
-7 -6 -6 -6 -5 -5 -4 -4 -3 -3 -3 -2 -1 -1 -1 -0 1 2 2 2 2 2 3 5 6 7 7 6 6 7 8 9 9 10 10 10 10 11 11 11 11 9 8
-7 -7 -7 -6 -6 -5 -5 -4 -4 -3 -2 -2 -1 -1 -1 -1 0 1 2 2 2 3 3 4 6 8 8 8 8 8 9 9 9 9 9 10 10 11 11 11 11 10 9
-7 -7 -7 -7 -6 -5 -5 -4 -4 -3 -3 -2 -2 -2 -1 -1 -0 1 2 3 3 3 4 4 6 8 9 11 11 11 10 10 10 10 10 10 11 11 11 11 10 9 8
-6 -6 -6 -6 -6 -5 -5 -4 -4 -3 -3 -2 -2 -2 -1 -1 -1 0 1 2 3 3 4 4 6 7 10 11 12 11 11 11 11 11 11 11 11 11 10 10 9 9 8
-4 -5 -5 -5 -4 -4 -4 -3 -3 -3 -3 -2 -2 -2 -1 -1 -1 0 1 2 2 3 3 4 5 7 9 10 11 11 11 11 11 10 10 10 10 10 9 9 9 9 9
-3 -3 -3 -3 -3 -2 -2 -2 -2 -3 -3 -2 -2 -2 -2 -1 -1 0 1 2 2 2 3 4 5 6 8 9 9 10 10 10 10 10 9 9 9 9 9 9 8 8 8
-2 -2 -2 -2 -1 -1 -1 -1 -1 -2 -2 -2 -2 -2 -1 -1 -1 0 1 2 2 2 3 4 5 6 7 7 8 8 9 9 9 9 9 8 8 8 8 8 8 8 8
-1 -1 -1 -1 -0 -0 0 0 -0 -1 -1 -1 -1 -1 -1 -1 -0 1 1 2 2 2 3 4 5 6 6 7 7 8 8 8 8 8 8 7 7 7 8 8 8 7 7
0 0 0 0 0 1 1 1 1 0 -0 -1 -1 -1 -1 -0 0 1 1 2 2 3 3 4 5 6 6 7 7 7 7 7 7 7 7 7 7 7 7 7 7 7 7
0 1 1 1 1 1 1 1 1 1 1 0 0 -0 -0 -0 0 1 1 2 3 3 4 5 5 5 6 6 7 7 7 7 7 7 7 7 6 6 6 6 6 6 6
1 1 2 2 2 2 2 2 2 2 1 1 1 1 1 1 1 1 2 3 3 4 5 5 5 5 5 6 6 6 6 6 6 6 6 6 5 5 5 5 6 6 6
1 1 2 2 2 2 2 2 2 2 1 1 1 2 2 3 3 3 4 4 4 4 5 5 4 4 5 5 5 5 5 5 5 5 5 5 5 5 5 5 5 5 5
0 1 2 2 2 2 2 2 1 1 1 1 1 1 2 3 5 5 5 5 5 5 4 4 4 4 5 5 5 5 5 5 5 5 5 5 5 5 5 5 5 6 6
0 1 1 1 1 1 2 2 1 1 1 2 2 2 2 4 5 6 6 5 5 4 4 4 4 4 5 5 5 5 4 4 5 5 5 5 5 5 5 5 6 6 7
0 0 1 1 1 1 2 2 2 2 3 3 3 3 3 4 5 5 5 4 4 4 4 4 4 4 5 5 5 4 4 4 5 5 5 5 5 5 6 6 7 8 9
-0 -0 -0 0 0 0 1 2 3 3 3 3 4 4 4 4 4 4 4 3 3 4 4 4 4 4 4 4 4 4 4 4 4 5 5 5 5 5 6 7 8 10 10